Bay City, TX

10:33 AM CDT on March 28, 2017 (GMT -0500)
Bay City

Weather History for KBYY - March, 2014

Change the Weather History Date:

Friday, March 7, 2014

  Actual Average (KLBX) Record (KLBX)
Temperature  
Mean Temperature 51 °F -  
Max Temperature 66 °F 67 °F 82 °F (2004)
Min Temperature 36 °F 51 °F 32 °F (2014)
Degree Days  
Heating Degree Days 14    
Growing Degree Days 1 (Base 50)    
Moisture  
Dew Point 48 °F    
Average Humidity 81    
Maximum Humidity 99    
Minimum Humidity 56    
Precipitation  
Precipitation 0.00 in - - ()
Sea Level Pressure  
Sea Level Pressure 30.03 in    
Wind  
Wind Speed 4 mph (SE)    
Max Wind Speed 15 mph    
Max Gust Speed 20 mph    
Visibility 8 miles    
Events      
Averages and records for this station are not official NWS values.
T = Trace of Precipitation, MM = Missing Value Source: NWS Daily Summary

Daily Weather History Graph

Daily Weather History Graph

Search for Another Location

Airport or City:

Trip Planner

Search our weather history database for the weather conditions in past years. The results will help you decide how hot, cold, wet, or windy it might be!

Date:

Astronomy

Mar. 07, 2014 Rise Set
Actual Time 6:42 AM CST 6:27 PM CST
Civil Twilight 6:18 AM CST 6:50 PM CST
Nautical Twilight 5:51 AM CST 7:18 PM CST
Astronomical Twilight 5:23 AM CST 7:45 PM CST
Moon 11:04 AM CST (3/7) 12:05 AM CST (3/7)
Length of Visible Light 12h 32m
Length of Day
11h 44m
Waxing Crescent, 42% of the Moon is Illuminated
Mar 7
Waxing Crescent
Mar 8
First Quarter
Mar 16
Full
Mar 23
Last Quarter
Mar 30
New

Hourly Weather History & Observations

Time (CST) Temp. Windchill Dew Point Humidity Pressure Visibility Wind Dir Wind Speed Gust Speed Precip Events Conditions
12:15 AM 41.7 °F - 40.6 °F 96% 30.10 in 4.0 mi Calm Calm - N/A   Clear
12:35 AM 41.2 °F - 40.3 °F 97% 30.09 in 3.0 mi Calm Calm - N/A   Clear
12:55 AM 40.5 °F - 39.7 °F 97% 30.09 in 3.0 mi Calm Calm - N/A   Clear
1:15 AM 39.7 °F - 39.4 °F 99% 30.09 in 3.0 mi Calm Calm - N/A   Clear
1:35 AM 39.7 °F - 39.4 °F 99% 30.09 in 5.0 mi Calm Calm - N/A   Clear
1:55 AM 39.7 °F - 39.4 °F 99% 30.08 in 7.0 mi Calm Calm - N/A   Clear
2:15 AM 40.3 °F - 39.7 °F 98% 30.07 in 7.0 mi Calm Calm - N/A   Clear
2:35 AM 40.3 °F - 39.7 °F 98% 30.07 in 7.0 mi Calm Calm - N/A   Clear
2:55 AM 40.3 °F - 39.6 °F 97% 30.06 in 7.0 mi Calm Calm - N/A   Clear
3:15 AM 40.3 °F - 39.2 °F 96% 30.06 in 10.0 mi Calm Calm - N/A   Clear
3:35 AM 39.6 °F - 38.7 °F 97% 30.05 in 7.0 mi Calm Calm - N/A   Clear
3:55 AM 39.4 °F - 38.7 °F 97% 30.05 in 7.0 mi Calm Calm - N/A   Clear
4:15 AM 39.2 °F - 38.5 °F 97% 30.05 in 5.0 mi Calm Calm - N/A   Clear
4:35 AM 39.2 °F - 38.5 °F 97% 30.05 in 7.0 mi Calm Calm - N/A   Clear
4:55 AM 38.5 °F - 37.8 °F 97% 30.05 in 10.0 mi Calm Calm - N/A   Clear
5:15 AM 37.6 °F - 37.0 °F 98% 30.05 in 7.0 mi Calm Calm - N/A   Clear
5:35 AM 37.4 °F - 36.9 °F 98% 30.05 in 4.0 mi Calm Calm - N/A   Clear
5:55 AM 37.0 °F - 36.7 °F 99% 30.05 in 4.0 mi Calm Calm - N/A   Clear
6:15 AM 36.3 °F - 36.1 °F 99% 30.06 in 5.0 mi Calm Calm - N/A   Clear
6:35 AM 36.7 °F 32.9 °F 36.3 °F 99% 30.05 in 5.0 mi ENE 4.6 mph - N/A   Clear
6:55 AM 37.2 °F 34.7 °F 36.9 °F 99% 30.06 in 5.0 mi East 3.5 mph - N/A   Clear
7:15 AM 39.6 °F 35.4 °F 38.8 °F 97% 30.06 in 5.0 mi ENE 5.8 mph - N/A   Clear
7:35 AM 42.1 °F - 40.8 °F 95% 30.08 in 5.0 mi Calm Calm - N/A   Clear
7:55 AM 45.0 °F - 43.2 °F 93% 30.07 in 5.0 mi Calm Calm - N/A   Clear
8:15 AM 48.7 °F - 45.9 °F 90% 30.09 in 7.0 mi East 3.5 mph - N/A   Clear
8:35 AM 51.8 °F - 47.8 °F 86% 30.10 in 7.0 mi East 5.8 mph - N/A   Clear
8:55 AM 54.3 °F - 49.3 °F 83% 30.11 in 10.0 mi East 4.6 mph - N/A   Clear
9:15 AM 56.5 °F - 50.2 °F 79% 30.11 in 10.0 mi East 5.8 mph - N/A   Clear
9:35 AM 58.3 °F - 50.9 °F 76% 30.11 in 10.0 mi ESE 6.9 mph - N/A   Clear
9:55 AM 59.9 °F - 50.9 °F 72% 30.11 in 10.0 mi ESE 6.9 mph - N/A   Clear
10:15 AM 61.0 °F - 50.9 °F 69% 30.10 in 10.0 mi ESE 10.4 mph - N/A   Clear
10:35 AM 62.1 °F - 51.4 °F 68% 30.10 in 10.0 mi ESE 8.1 mph - N/A   Clear
10:55 AM 62.8 °F - 51.8 °F 67% 30.09 in 10.0 mi SE 6.9 mph - N/A   Scattered Clouds
11:15 AM 63.9 °F - 51.3 °F 64% 30.09 in 10.0 mi SSE 9.2 mph - N/A   Scattered Clouds
11:35 AM 64.9 °F - 51.1 °F 61% 30.08 in 10.0 mi South 9.2 mph - N/A   Scattered Clouds
11:55 AM 65.5 °F - 50.5 °F 58% 30.08 in 10.0 mi SSE 10.4 mph 18.4 mph N/A   Scattered Clouds
12:15 PM 66.4 °F - 50.9 °F 57% 30.07 in 10.0 mi South 9.2 mph 16.1 mph N/A   Scattered Clouds
12:35 PM 66.4 °F - 50.0 °F 56% 30.05 in 10.0 mi South 11.5 mph 17.3 mph N/A   Clear
12:55 PM 66.6 °F - 50.4 °F 56% 30.04 in 10.0 mi SSE 10.4 mph - N/A   Clear
1:15 PM 66.6 °F - 50.2 °F 56% 30.03 in 10.0 mi SSE 12.7 mph 17.3 mph N/A   Clear
1:35 PM 66.6 °F - 50.4 °F 56% 30.01 in 10.0 mi SE 11.5 mph 18.4 mph N/A   Clear
1:55 PM 65.7 °F - 50.7 °F 58% 30.00 in 10.0 mi SSE 12.7 mph 19.6 mph N/A   Clear
2:15 PM 65.5 °F - 50.7 °F 59% 29.99 in 10.0 mi SE 11.5 mph 17.3 mph N/A   Clear
2:35 PM 65.3 °F - 51.1 °F 60% 29.98 in 10.0 mi SSE 12.7 mph 17.3 mph N/A   Clear
2:55 PM 64.8 °F - 51.6 °F 62% 29.97 in 10.0 mi SSE 12.7 mph 17.3 mph N/A   Clear
3:15 PM 64.4 °F - 51.4 °F 63% 29.98 in 10.0 mi SSE 12.7 mph - N/A   Clear
3:35 PM 64.4 °F - 51.6 °F 63% 29.97 in 10.0 mi SE 15.0 mph - N/A   Scattered Clouds
3:55 PM 64.9 °F - 52.2 °F 63% 29.97 in 10.0 mi SE 9.2 mph 16.1 mph N/A   Scattered Clouds
4:15 PM 64.9 °F - 52.5 °F 64% 29.96 in 10.0 mi SE 10.4 mph 19.6 mph N/A   Scattered Clouds
4:35 PM 65.1 °F - 52.5 °F 64% 29.96 in 10.0 mi SE 13.8 mph - N/A   Clear
5:00 PM 64.0 °F - 52.3 °F 66% 29.96 in 10.0 mi SSE 9.2 mph - N/A   Clear
5:15 PM 63.5 °F - 52.7 °F 68% 29.96 in 10.0 mi SE 11.5 mph - N/A   Clear
5:35 PM 62.6 °F - 52.2 °F 69% 29.97 in 10.0 mi SE 8.1 mph - N/A   Clear
5:55 PM 62.2 °F - 52.2 °F 70% 29.96 in 10.0 mi SE 10.4 mph - N/A   Clear
6:15 PM 61.5 °F - 52.2 °F 71% 29.96 in 10.0 mi SE 8.1 mph - N/A   Clear
6:35 PM 60.4 °F - 52.2 °F 74% 29.96 in 10.0 mi SE 5.8 mph - N/A   Clear
6:55 PM 59.2 °F - 52.2 °F 78% 29.95 in 10.0 mi ESE 5.8 mph - N/A   Clear
7:15 PM 58.3 °F - 52.3 °F 81% 29.96 in 10.0 mi SE 4.6 mph - N/A   Scattered Clouds
7:35 PM 58.1 °F - 52.7 °F 82% 29.96 in 10.0 mi ESE 4.6 mph - N/A   Scattered Clouds
7:55 PM 57.9 °F - 52.9 °F 83% 29.97 in 10.0 mi ESE 3.5 mph - N/A   Clear
8:15 PM 57.0 °F - 52.9 °F 86% 29.97 in 10.0 mi ESE 4.6 mph - N/A   Scattered Clouds
8:35 PM 57.2 °F - 53.4 °F 87% 29.97 in 10.0 mi ESE 4.6 mph - N/A   Scattered Clouds
8:55 PM 56.8 °F - 53.2 °F 88% 29.98 in 10.0 mi ESE 4.6 mph - N/A   Clear
9:15 PM 56.3 °F - 53.2 °F 89% 29.97 in 10.0 mi SE 6.9 mph - N/A   Clear
9:40 PM 56.5 °F - 53.6 °F 90% 29.98 in 10.0 mi ESE 4.6 mph - N/A   Clear
9:55 PM 56.7 °F - 53.8 °F 90% 29.98 in 10.0 mi ESE 3.5 mph - N/A   Clear
10:15 PM 57.0 °F - 54.0 °F 89% 29.98 in 10.0 mi SE 3.5 mph - N/A   Clear
10:35 PM 57.9 °F - 54.9 °F 90% 29.98 in 10.0 mi SSE 5.8 mph - N/A   Clear
10:55 PM 59.2 °F - 55.6 °F 88% 29.98 in 10.0 mi SE 5.8 mph - N/A   Clear
11:15 PM 59.5 °F - 55.6 °F 87% 29.98 in 10.0 mi East 3.5 mph - N/A   Scattered Clouds
11:35 PM 58.5 °F - 55.4 °F 90% 29.98 in 10.0 mi ENE 3.5 mph - N/A   Scattered Clouds
11:55 PM 57.6 °F - 54.9 °F 91% 29.98 in 10.0 mi NE 4.6 mph - N/A   Scattered Clouds